This is the latest recevied weather packets stored in our database for station/object OK1FPA-13. If no packets are shown the sender has not sent any weather packets the latest 10 day(s).
| Time | Temp. | Humidity | Pressure | Rain* | Wind** | Luminosity | Snow |
|---|---|---|---|---|---|---|---|
| 1777640667 | 21.67° C | 31% | 1025.3 hPa | - | - | - | - |
| 1777640067 | 21.67° C | 30% | 1025.5 hPa | - | - | - | - |
| 1777639468 | 20.56° C | 32% | 1025.8 hPa | - | - | - | - |
| 1777638867 | 21.67° C | 32% | 1025.9 hPa | - | - | - | - |
| 1777638266 | 21.11° C | 31% | 1025.9 hPa | - | - | - | - |
| 1777637667 | 21.11° C | 32% | 1026.1 hPa | - | - | - | - |
| 1777637067 | 21.11° C | 32% | 1026.1 hPa | - | - | - | - |
| 1777636467 | 21.11° C | 33% | 1026.2 hPa | - | - | - | - |
| 1777635867 | 20.56° C | 33% | 1026.3 hPa | - | - | - | - |
| 1777635267 | 19.44° C | 33% | 1026.4 hPa | - | - | - | - |
| 1777634667 | 20° C | 32% | 1026.6 hPa | - | - | - | - |
| 1777634067 | 19.44° C | 33% | 1026.6 hPa | - | - | - | - |
| 1777632867 | 20° C | 32% | 1026.8 hPa | - | - | - | - |
| 1777632267 | 19.44° C | 33% | 1026.9 hPa | - | - | - | - |
| 1777631667 | 18.89° C | 32% | 1027 hPa | - | - | - | - |
| 1777631067 | 20.56° C | 33% | 1027.1 hPa | - | - | - | - |
| 1777630467 | 19.44° C | 34% | 1027.2 hPa | - | - | - | - |
| 1777629867 | 19.44° C | 36% | 1027.4 hPa | - | - | - | - |
| 1777629267 | 18.89° C | 37% | 1027.5 hPa | - | - | - | - |
| 1777628667 | 18.33° C | 35% | 1027.5 hPa | - | - | - | - |
| 1777628067 | 18.89° C | 36% | 1027.6 hPa | - | - | - | - |
| 1777627467 | 18.33° C | 38% | 1027.7 hPa | - | - | - | - |
| 1777626868 | 18.33° C | 37% | 1027.8 hPa | - | - | - | - |
| 1777626268 | 17.22° C | 39% | 1027.8 hPa | - | - | - | - |
| 1777625667 | 17.22° C | 40% | 1027.9 hPa | - | - | - | - |
* Rain since midnight (hover to see other rain measurements)
** Current wind speed in m/s (hover to see current wind gust speed)